Location: Arthez
(43.0833°N, 0.2500°W)
Time: 01:07:22
(UTC+00:00)

In-Cosmos 22 Rocket - Pass Details

Date: 23 October 2021
Orbit: 790 x 888 km, 81.2° (Epoch: 06 December)

Event Time Altitude Azimuth Distance (km) Brightness Sun altitude
Rises 18:47:32 0° 351° (N) 3,306 7.4 -19.3°
Reaches altitude 10° 18:49:56 10° 353° (N) 2,367 6.6 -19.7°
Maximum altitude 18:55:16 77° 79° (E) 815 3.9 -20.7°
Drops below altitude 10° 19:00:34 10° 166° (SSE) 2,356 6.3 -21.7°
Sets 19:02:56 0° 168° (SSE) 3,288 7.1 -22.1°
